Location: Brno
(49.2000°N, 16.6330°E)
Time: 04:25:03
(UTC+02:00)

Vanguard 3 - Pass Details

Date: 09 August 2021
Orbit: 510 x 3260 km, 33.3° (Epoch: 16 September)

Event Time Altitude Azimuth Distance (km) Brightness Sun altitude
Rises 21:07:58 0° 268° (W) 5,781 12.5 -7.6°
Reaches altitude 10° 21:11:52 10° 259° (W) 5,119 11.9 -8.1°
Maximum altitude 21:25:16 34° 203° (SSW) 4,280 10.7 -9.9°
Enters shadow 21:41:22 10° 149° (SSE) 6,140 11.0 -11.9°
Drops below altitude 10° 21:41:30 10° 149° (SSE) 6,162 - -11.9°
Sets 21:46:52 0° 141° (SE) 7,062 - -12.6°
